Time,TemperatureF,DewpointF,PressureIn,WindDirection,WindDirectionDegrees,WindSpeedMPH,WindSpeedGustMPH,Humidity,HourlyPrecipIn,Conditions,Clouds,dailyrainin,SoftwareType,DateUTC
2013-01-04 00:01:00,5.2,-1.6,29.88,ESE,113,0.3,1.6,73,0.00,,,0.00,WUHU216HW,2013-01-04 05:01:00,
2013-01-04 00:02:00,5.2,-1.6,29.88,ESE,111,0.6,1.6,73,0.00,,,0.00,WUHU216HW,2013-01-04 05:02:00,
2013-01-04 00:03:00,5.2,-1.6,29.88,East,84,0.8,1.6,73,0.00,,,0.00,WUHU216HW,2013-01-04 05:03:00,
2013-01-04 00:08:00,5.0,-1.3,29.88,ESE,116,0.8,1.3,75,0.00,,,0.00,WUHU216HW,2013-01-04 05:08:00,
2013-01-04 00:13:00,4.9,-1.4,29.88,ESE,113,0.4,1.8,75,0.00,,,0.00,WUHU216HW,2013-01-04 05:13:00,
2013-01-04 00:18:00,4.7,-1.6,29.87,ESE,113,1.1,1.8,75,0.00,,,0.00,WUHU216HW,2013-01-04 05:18:00,
2013-01-04 00:23:00,4.7,-1.6,29.88,ENE,68,0.9,1.3,75,0.00,,,0.00,WUHU216HW,2013-01-04 05:23:00,
2013-01-04 00:28:00,4.3,-1.6,29.87,ENE,68,0.6,1.6,76,0.00,,,0.00,WUHU216HW,2013-01-04 05:28:00,
2013-01-04 00:33:00,4.1,-1.8,29.86,ENE,68,0.4,1.6,76,0.00,,,0.00,WUHU216HW,2013-01-04 05:33:00,
2013-01-04 00:38:00,4.3,-1.3,29.86,ENE,68,0.5,0.9,77,0.00,,,0.00,WUHU216HW,2013-01-04 05:38:00,
2013-01-04 00:43:00,4.3,-1.6,29.87,ENE,68,0.4,0.9,76,0.00,,,0.00,WUHU216HW,2013-01-04 05:43:00,
2013-01-04 00:48:00,4.5,-1.2,29.86,ENE,68,0.7,0.7,77,0.00,,,0.00,WUHU216HW,2013-01-04 05:48:00,
2013-01-04 00:53:00,4.7,-1.0,29.86,ENE,68,0.4,0.7,77,0.00,,,0.00,WUHU216HW,2013-01-04 05:53:00,
2013-01-04 00:58:00,4.7,-0.7,29.86,ENE,68,0.0,0.7,78,0.00,,,0.00,WUHU216HW,2013-01-04 05:58:00,
2013-01-04 01:03:00,4.7,-1.3,29.86,ENE,68,0.2,0.9,76,0.00,,,0.00,WUHU216HW,2013-01-04 06:03:00,
2013-01-04 01:08:00,4.9,-1.2,29.86,ENE,68,0.0,0.9,76,0.00,,,0.00,WUHU216HW,2013-01-04 06:08:00,
2013-01-04 01:13:00,5.4,0.0,29.86,ENE,68,0.0,0.0,78,0.00,,,0.00,WUHU216HW,2013-01-04 06:13:00,
2013-01-04 01:18:00,5.9,0.6,29.86,ENE,68,0.7,1.1,78,0.00,,,0.00,WUHU216HW,2013-01-04 06:18:00,
2013-01-04 01:23:00,5.0,-0.7,29.86,ENE,68,0.7,1.1,77,0.00,,,0.00,WUHU216HW,2013-01-04 06:23:00,
2013-01-04 01:28:00,4.7,-1.0,29.86,ENE,68,0.6,0.9,77,0.00,,,0.00,WUHU216HW,2013-01-04 06:28:00,
2013-01-04 01:33:00,4.3,-1.1,29.86,ENE,68,1.1,1.1,78,0.00,,,0.00,WUHU216HW,2013-01-04 06:33:00,
2013-01-04 01:38:00,4.3,-1.1,29.86,ENE,68,0.2,1.6,78,0.00,,,0.00,WUHU216HW,2013-01-04 06:38:00,
2013-01-04 01:43:00,4.3,-0.8,29.86,ENE,68,0.3,1.6,79,0.00,,,0.00,WUHU216HW,2013-01-04 06:43:00,
2013-01-04 01:48:00,4.5,-0.9,29.86,ENE,68,0.7,1.1,78,0.00,,,0.00,WUHU216HW,2013-01-04 06:48:00,
2013-01-04 01:53:00,4.7,-0.7,29.86,ENE,68,0.0,1.1,78,0.00,,,0.00,WUHU216HW,2013-01-04 06:53:00,
2013-01-04 01:58:00,4.5,-0.9,29.86,ENE,68,0.4,0.4,78,0.00,,,0.00,WUHU216HW,2013-01-04 06:58:00,
2013-01-04 02:03:00,4.5,-0.6,29.86,ENE,68,0.6,0.9,79,0.00,,,0.00,WUHU216HW,2013-01-04 07:03:00,
2013-01-04 02:08:00,4.3,-0.8,29.86,ENE,68,0.0,0.9,79,0.00,,,0.00,WUHU216HW,2013-01-04 07:08:00,
2013-01-04 02:13:00,4.5,-0.9,29.86,ENE,68,0.7,0.7,78,0.00,,,0.00,WUHU216HW,2013-01-04 07:13:00,
2013-01-04 02:18:00,4.3,-0.8,29.85,ENE,68,0.4,0.7,79,0.00,,,0.00,WUHU216HW,2013-01-04 07:18:00,
2013-01-04 02:23:00,4.1,-1.0,29.85,ENE,68,0.3,0.7,79,0.00,,,0.00,WUHU216HW,2013-01-04 07:23:00,
2013-01-04 02:28:00,4.3,-0.8,29.85,ENE,68,0.4,0.4,79,0.00,,,0.00,WUHU216HW,2013-01-04 07:28:00,
2013-01-04 02:33:00,4.7,-0.2,29.86,ENE,68,0.6,1.1,80,0.00,,,0.00,WUHU216HW,2013-01-04 07:33:00,
2013-01-04 02:38:00,4.5,-0.4,29.85,ENE,58,0.9,1.1,80,0.00,,,0.00,WUHU216HW,2013-01-04 07:38:00,
2013-01-04 02:43:00,4.3,-0.5,29.85,ENE,68,0.9,1.3,80,0.00,,,0.00,WUHU216HW,2013-01-04 07:43:00,
2013-01-04 02:48:00,4.1,-0.7,29.85,ENE,68,0.2,1.3,80,0.00,,,0.00,WUHU216HW,2013-01-04 07:48:00,
2013-01-04 02:53:00,4.1,-0.7,29.85,ENE,68,0.7,0.9,80,0.00,,,0.00,WUHU216HW,2013-01-04 07:53:00,
2013-01-04 02:58:00,4.1,-0.7,29.85,NE,45,0.3,1.1,80,0.00,,,0.00,WUHU216HW,2013-01-04 07:58:00,
2013-01-04 03:03:00,4.3,-0.5,29.85,NE,45,0.4,1.1,80,0.00,,,0.00,WUHU216HW,2013-01-04 08:03:00,
2013-01-04 03:08:00,4.5,-0.4,29.85,NE,45,1.6,1.6,80,0.00,,,0.00,WUHU216HW,2013-01-04 08:08:00,
2013-01-04 03:13:00,4.7,0.1,29.85,NE,45,0.3,1.6,81,0.00,,,0.00,WUHU216HW,2013-01-04 08:13:00,
2013-01-04 03:18:00,5.2,0.9,29.85,NE,45,0.4,1.6,82,0.00,,,0.00,WUHU216HW,2013-01-04 08:18:00,
2013-01-04 03:23:00,6.1,2.0,29.85,NE,45,0.0,0.7,83,0.00,,,0.00,WUHU216HW,2013-01-04 08:23:00,
2013-01-04 03:27:00,6.8,2.7,29.85,NE,45,0.0,0.7,83,0.00,,,0.00,WUHU216HW,2013-01-04 08:27:00,
2013-01-04 04:21:00,6.5,2.3,29.84,East,90,0.4,0.4,83,0.00,,,0.00,WUHU216HW,2013-01-04 09:21:00,
2013-01-04 04:26:00,6.5,2.3,29.84,East,90,1.3,1.3,83,0.00,,,0.00,WUHU216HW,2013-01-04 09:26:00,
2013-01-04 04:31:00,6.5,2.3,29.84,East,90,2.0,2.0,83,0.00,,,0.00,WUHU216HW,2013-01-04 09:31:00,
2013-01-04 04:36:00,6.7,2.5,29.84,ENE,68,1.8,2.0,83,0.00,,,0.00,WUHU216HW,2013-01-04 09:36:00,
2013-01-04 04:41:00,6.8,3.0,29.84,ENE,76,1.7,2.0,84,0.00,,,0.00,WUHU216HW,2013-01-04 09:41:00,
2013-01-04 04:46:00,7.0,2.9,29.83,East,90,1.3,2.0,83,0.00,,,0.00,WUHU216HW,2013-01-04 09:46:00,
2013-01-04 04:51:00,7.2,3.1,29.83,East,90,1.6,2.0,83,0.00,,,0.00,WUHU216HW,2013-01-04 09:51:00,
2013-01-04 04:56:00,7.6,3.4,29.83,East,90,1.5,2.5,83,0.00,,,0.00,WUHU216HW,2013-01-04 09:56:00,
2013-01-04 05:01:00,7.6,3.7,29.83,East,89,1.2,2.5,84,0.00,,,0.00,WUHU216HW,2013-01-04 10:01:00,
2013-01-04 05:06:00,7.9,4.1,29.83,East,90,1.1,1.8,84,0.00,,,0.00,WUHU216HW,2013-01-04 10:06:00,
2013-01-04 05:11:00,8.1,4.0,29.84,East,90,0.7,1.3,83,0.00,,,0.00,WUHU216HW,2013-01-04 10:11:00,
2013-01-04 05:16:00,8.3,4.4,29.83,East,90,1.0,1.8,84,0.00,,,0.00,WUHU216HW,2013-01-04 10:16:00,
2013-01-04 05:21:00,8.6,4.8,29.83,East,90,0.7,1.8,84,0.00,,,0.00,WUHU216HW,2013-01-04 10:21:00,
2013-01-04 05:26:00,8.8,5.5,29.83,East,90,0.4,1.1,86,0.00,,,0.00,WUHU216HW,2013-01-04 10:26:00,
2013-01-04 05:31:00,9.4,5.9,29.83,NE,56,0.9,1.3,86,0.00,,,0.00,WUHU216HW,2013-01-04 10:31:00,
2013-01-04 05:36:00,9.7,6.3,29.83,NE,45,1.8,1.8,86,0.00,,,0.00,WUHU216HW,2013-01-04 10:36:00,
2013-01-04 05:41:00,9.7,5.8,29.83,NE,45,0.5,1.8,84,0.00,,,0.00,WUHU216HW,2013-01-04 10:41:00,
2013-01-04 05:46:00,9.7,6.0,29.83,NE,45,0.9,1.6,85,0.00,,,0.00,WUHU216HW,2013-01-04 10:46:00,
2013-01-04 05:51:00,9.7,5.8,29.83,NE,45,0.7,1.1,84,0.00,,,0.00,WUHU216HW,2013-01-04 10:51:00,
2013-01-04 05:56:00,9.7,5.8,29.84,NNE,23,1.8,1.8,84,0.00,,,0.00,WUHU216HW,2013-01-04 10:56:00,
2013-01-04 06:01:00,9.9,5.7,29.83,NNE,23,0.2,1.8,83,0.00,,,0.00,WUHU216HW,2013-01-04 11:01:00,
2013-01-04 06:06:00,10.4,6.2,29.84,NE,45,0.9,2.2,83,0.00,,,0.00,WUHU216HW,2013-01-04 11:06:00,
2013-01-04 06:11:00,10.3,6.3,29.84,NE,45,0.7,2.2,84,0.00,,,0.00,WUHU216HW,2013-01-04 11:11:00,
2013-01-04 06:16:00,10.1,5.9,29.84,NNE,23,0.2,2.2,83,0.00,,,0.00,WUHU216HW,2013-01-04 11:16:00,
2013-01-04 06:21:00,10.6,6.9,29.84,NNE,23,0.3,2.2,85,0.00,,,0.00,WUHU216HW,2013-01-04 11:21:00,
2013-01-04 06:26:00,11.0,7.3,29.84,NNE,23,0.4,1.1,85,0.00,,,0.00,WUHU216HW,2013-01-04 11:26:00,
2013-01-04 06:31:00,11.3,7.7,29.84,NNE,23,0.0,1.3,85,0.00,,,0.00,WUHU216HW,2013-01-04 11:31:00,
2013-01-04 06:36:00,11.7,8.0,29.84,North,354,0.5,1.3,85,0.00,,,0.00,WUHU216HW,2013-01-04 11:36:00,
2013-01-04 06:41:00,12.2,8.6,29.85,North,0,0.3,0.9,85,0.00,,,0.00,WUHU216HW,2013-01-04 11:41:00,
2013-01-04 06:46:00,12.2,8.6,29.84,North,0,0.2,0.4,85,0.00,,,0.00,WUHU216HW,2013-01-04 11:46:00,
2013-01-04 06:51:00,12.6,8.9,29.84,North,0,0.2,0.4,85,0.00,,,0.00,WUHU216HW,2013-01-04 11:51:00,
2013-01-04 06:56:00,13.3,9.6,29.84,West,270,0.4,0.4,85,0.00,,,0.00,WUHU216HW,2013-01-04 11:56:00,
2013-01-04 07:01:00,14.2,10.5,29.84,WSW,248,1.1,1.1,85,0.00,,,0.00,WUHU216HW,2013-01-04 12:01:00,
2013-01-04 07:06:00,15.3,11.8,29.84,WSW,248,0.0,1.1,86,0.00,,,0.00,WUHU216HW,2013-01-04 12:06:00,
2013-01-04 07:11:00,16.2,12.9,29.84,West,270,0.4,1.1,87,0.00,,,0.00,WUHU216HW,2013-01-04 12:11:00,
2013-01-04 07:16:00,16.9,13.6,29.84,West,270,1.1,1.1,87,0.00,,,0.00,WUHU216HW,2013-01-04 12:16:00,
2013-01-04 07:21:00,17.5,13.9,29.84,WNW,293,0.7,1.1,86,0.00,,,0.00,WUHU216HW,2013-01-04 12:21:00,
2013-01-04 07:26:00,18.2,14.6,29.83,West,270,0.4,1.1,86,0.00,,,0.00,WUHU216HW,2013-01-04 12:26:00,
2013-01-04 07:31:00,18.4,14.8,29.83,West,270,0.7,1.1,86,0.00,,,0.00,WUHU216HW,2013-01-04 12:31:00,
2013-01-04 07:36:00,19.1,15.8,29.83,West,270,0.3,2.2,87,0.00,,,0.00,WUHU216HW,2013-01-04 12:36:00,
2013-01-04 07:41:00,18.5,14.9,29.83,North,0,0.7,2.2,86,0.00,,,0.00,WUHU216HW,2013-01-04 12:41:00,
2013-01-04 07:46:00,17.3,12.3,29.83,NE,45,0.9,1.1,81,0.00,,,0.00,WUHU216HW,2013-01-04 12:46:00,
2013-01-04 07:51:00,16.4,12.1,29.83,NNW,338,0.7,0.9,83,0.00,,,0.00,WUHU216HW,2013-01-04 12:51:00,
2013-01-04 07:56:00,16.9,13.3,29.83,SW,224,1.3,1.8,86,0.00,,,0.00,WUHU216HW,2013-01-04 12:56:00,
2013-01-04 08:01:00,18.4,15.6,29.82,SW,225,2.5,4.0,89,0.00,,,0.00,WUHU216HW,2013-01-04 13:01:00,
2013-01-04 08:06:00,19.3,16.2,29.82,West,270,1.1,4.0,88,0.00,,,0.00,WUHU216HW,2013-01-04 13:06:00,
2013-01-04 08:11:00,19.4,16.1,29.82,WSW,248,2.2,3.1,87,0.00,,,0.00,WUHU216HW,2013-01-04 13:11:00,
2013-01-04 08:16:00,19.4,15.8,29.81,WSW,248,2.3,3.1,86,0.00,,,0.00,WUHU216HW,2013-01-04 13:16:00,
2013-01-04 08:21:00,20.3,17.3,29.81,WSW,239,2.4,3.1,88,0.00,,,0.00,WUHU216HW,2013-01-04 13:21:00,
2013-01-04 08:26:00,21.4,18.1,29.81,WSW,248,1.5,3.1,87,0.00,,,0.00,WUHU216HW,2013-01-04 13:26:00,
2013-01-04 08:31:00,22.0,18.4,29.82,SW,225,2.7,2.7,86,0.00,,,0.00,WUHU216HW,2013-01-04 13:31:00,
2013-01-04 08:36:00,22.9,19.0,29.81,NE,51,0.4,4.3,85,0.00,,,0.00,WUHU216HW,2013-01-04 13:36:00,
2013-01-04 08:41:00,23.2,19.4,29.81,WSW,248,1.1,4.3,85,0.00,,,0.00,WUHU216HW,2013-01-04 13:41:00,
2013-01-04 08:46:00,22.9,19.0,29.81,ESE,113,0.6,1.6,85,0.00,,,0.00,WUHU216HW,2013-01-04 13:46:00,
2013-01-04 08:51:00,22.7,18.8,29.81,West,270,0.4,1.3,85,0.00,,,0.00,WUHU216HW,2013-01-04 13:51:00,
2013-01-04 08:56:00,22.7,18.8,29.81,ENE,68,0.0,1.3,85,0.00,,,0.00,WUHU216HW,2013-01-04 13:56:00,
2013-01-04 09:01:00,22.5,18.4,29.81,SW,225,1.7,3.1,84,0.00,,,0.00,WUHU216HW,2013-01-04 14:01:00,
2013-01-04 09:06:00,22.5,18.4,29.81,WNW,283,0.9,3.1,84,0.00,,,0.00,WUHU216HW,2013-01-04 14:06:00,
2013-01-04 09:11:00,22.0,17.3,29.81,NNW,332,0.8,1.8,82,0.00,,,0.00,WUHU216HW,2013-01-04 14:11:00,
2013-01-04 09:16:00,21.6,16.9,29.81,SW,225,1.1,1.6,82,0.00,,,0.00,WUHU216HW,2013-01-04 14:16:00,
2013-01-04 09:21:00,21.2,16.6,29.81,NNW,340,0.8,1.8,82,0.00,,,0.00,WUHU216HW,2013-01-04 14:21:00,
2013-01-04 09:26:00,20.9,16.2,29.81,WSW,248,0.6,1.8,82,0.00,,,0.00,WUHU216HW,2013-01-04 14:26:00,
2013-01-04 09:31:00,20.7,16.0,29.81,SW,225,1.1,1.1,82,0.00,,,0.00,WUHU216HW,2013-01-04 14:31:00,
2013-01-04 09:36:00,21.1,16.4,29.81,WSW,248,1.8,1.8,82,0.00,,,0.00,WUHU216HW,2013-01-04 14:36:00,
2013-01-04 09:41:00,21.2,16.3,29.81,WSW,248,0.4,3.1,81,0.00,,,0.00,WUHU216HW,2013-01-04 14:41:00,
2013-01-04 09:46:00,21.4,16.2,29.81,WSW,248,4.0,4.0,80,0.00,,,0.00,WUHU216HW,2013-01-04 14:46:00,
2013-01-04 09:51:00,21.8,16.6,29.81,SW,225,2.2,5.1,80,0.00,,,0.00,WUHU216HW,2013-01-04 14:51:00,
2013-01-04 09:56:00,22.5,17.3,29.81,SW,225,3.2,5.1,80,0.00,,,0.00,WUHU216HW,2013-01-04 14:56:00,
2013-01-04 10:01:00,23.4,17.9,29.80,SW,225,5.4,5.4,79,0.00,,,0.00,WUHU216HW,2013-01-04 15:01:00,
2013-01-04 10:06:00,24.7,18.8,29.81,WSW,257,3.3,7.4,78,0.00,,,0.00,WUHU216HW,2013-01-04 15:06:00,
2013-01-04 10:11:00,25.2,18.6,29.81,WSW,239,4.4,7.4,76,0.00,,,0.00,WUHU216HW,2013-01-04 15:11:00,
2013-01-04 10:16:00,25.9,19.0,29.80,SW,225,2.7,5.4,75,0.00,,,0.00,WUHU216HW,2013-01-04 15:16:00,
2013-01-04 10:21:00,26.6,19.1,29.80,WSW,248,2.2,2.7,73,0.00,,,0.00,WUHU216HW,2013-01-04 15:21:00,
2013-01-04 10:26:00,27.2,19.4,29.80,SW,225,1.0,2.2,72,0.00,,,0.00,WUHU216HW,2013-01-04 15:26:00,
2013-01-04 10:31:00,27.7,19.5,29.80,SW,234,2.3,3.8,71,0.00,,,0.00,WUHU216HW,2013-01-04 15:31:00,
2013-01-04 10:36:00,27.5,19.4,29.79,SSE,164,1.7,3.8,71,0.00,,,0.00,WUHU216HW,2013-01-04 15:36:00,
2013-01-04 10:41:00,28.3,20.1,29.79,SSE,158,1.3,3.6,71,0.00,,,0.00,WUHU216HW,2013-01-04 15:41:00,
2013-01-04 10:46:00,29.3,20.4,29.79,SW,225,5.1,5.1,69,0.00,,,0.00,WUHU216HW,2013-01-04 15:46:00,
2013-01-04 10:51:00,30.2,20.2,29.78,SW,225,6.7,7.4,66,0.00,,,0.00,WUHU216HW,2013-01-04 15:51:00,
2013-01-04 10:56:00,31.0,20.5,29.78,South,180,1.8,7.4,65,0.00,,,0.00,WUHU216HW,2013-01-04 15:56:00,
2013-01-04 11:01:00,31.3,20.5,29.78,West,270,7.4,7.4,64,0.00,,,0.00,WUHU216HW,2013-01-04 16:01:00,
2013-01-04 11:06:00,31.1,20.3,29.77,SSW,203,3.4,7.4,64,0.00,,,0.00,WUHU216HW,2013-01-04 16:06:00,
2013-01-04 11:11:00,30.8,20.3,29.77,WSW,246,1.4,6.9,65,0.00,,,0.00,WUHU216HW,2013-01-04 16:11:00,
2013-01-04 11:16:00,30.6,20.2,29.77,WSW,248,4.9,7.4,65,0.00,,,0.00,WUHU216HW,2013-01-04 16:16:00,
2013-01-04 11:21:00,30.6,20.5,29.76,SW,225,6.7,7.4,66,0.00,,,0.00,WUHU216HW,2013-01-04 16:21:00,
2013-01-04 11:26:00,30.4,20.0,29.76,SW,225,4.7,6.7,65,0.00,,,0.00,WUHU216HW,2013-01-04 16:26:00,
2013-01-04 11:31:00,30.4,20.0,29.76,South,180,8.7,8.7,65,0.00,,,0.00,WUHU216HW,2013-01-04 16:31:00,
2013-01-04 11:36:00,30.1,20.0,29.75,WSW,248,5.1,8.7,66,0.00,,,0.00,WUHU216HW,2013-01-04 16:36:00,
2013-01-04 11:41:00,29.9,19.8,29.76,SW,225,5.8,9.2,66,0.00,,,0.00,WUHU216HW,2013-01-04 16:41:00,
2013-01-04 11:46:00,29.7,19.7,29.75,SW,236,5.4,9.2,66,0.00,,,0.00,WUHU216HW,2013-01-04 16:46:00,
2013-01-04 11:51:00,29.7,19.7,29.75,SW,225,4.9,8.9,66,0.00,,,0.00,WUHU216HW,2013-01-04 16:51:00,
2013-01-04 11:56:00,29.7,19.7,29.75,SSW,203,5.4,6.9,66,0.00,,,0.00,WUHU216HW,2013-01-04 16:56:00,
2013-01-04 12:01:00,29.7,19.7,29.75,WSW,248,6.7,6.7,66,0.00,,,0.00,WUHU216HW,2013-01-04 17:01:00,
2013-01-04 12:06:00,29.9,19.8,29.75,WSW,253,5.3,8.1,66,0.00,,,0.00,WUHU216HW,2013-01-04 17:06:00,
2013-01-04 12:11:00,29.9,20.2,29.75,SW,225,4.3,8.1,67,0.00,,,0.00,WUHU216HW,2013-01-04 17:11:00,
2013-01-04 12:16:00,30.1,20.0,29.75,WSW,248,5.4,6.3,66,0.00,,,0.00,WUHU216HW,2013-01-04 17:16:00,
2013-01-04 12:21:00,29.9,19.8,29.75,WSW,248,2.9,5.4,66,0.00,,,0.00,WUHU216HW,2013-01-04 17:21:00,
2013-01-04 12:26:00,29.7,20.1,29.75,SW,225,6.0,6.0,67,0.00,,,0.00,WUHU216HW,2013-01-04 17:26:00,
2013-01-04 12:31:00,29.7,20.4,29.75,West,275,1.9,6.0,68,0.00,,,0.00,WUHU216HW,2013-01-04 17:31:00,
2013-01-04 12:36:00,29.7,20.1,29.74,WSW,248,3.1,4.3,67,0.00,,,0.00,WUHU216HW,2013-01-04 17:36:00,
2013-01-04 12:41:00,29.5,19.5,29.74,WSW,241,3.1,4.3,66,0.00,,,0.00,WUHU216HW,2013-01-04 17:41:00,
2013-01-04 12:46:00,29.7,20.1,29.74,North,0,3.8,4.0,67,0.00,,,0.00,WUHU216HW,2013-01-04 17:46:00,
2013-01-04 12:51:00,29.5,19.9,29.74,WNW,282,3.7,4.0,67,0.00,,,0.00,WUHU216HW,2013-01-04 17:51:00,
2013-01-04 12:56:00,29.5,19.9,29.74,SSW,203,2.7,4.3,67,0.00,,,0.00,WUHU216HW,2013-01-04 17:56:00,
2013-01-04 13:01:00,29.7,20.1,29.74,WSW,250,2.1,4.3,67,0.00,,,0.00,WUHU216HW,2013-01-04 18:01:00,
2013-01-04 13:06:00,29.5,19.9,29.74,WSW,241,2.8,5.1,67,0.00,,,0.00,WUHU216HW,2013-01-04 18:06:00,
2013-01-04 13:11:00,29.5,19.9,29.74,SW,222,1.5,5.1,67,0.00,,,0.00,WUHU216HW,2013-01-04 18:11:00,
2013-01-04 13:16:00,29.7,20.1,29.74,WSW,248,1.8,4.7,67,0.00,,,0.00,WUHU216HW,2013-01-04 18:16:00,
2013-01-04 13:21:00,29.9,20.5,29.74,WNW,293,0.4,3.1,68,0.00,,,0.00,WUHU216HW,2013-01-04 18:21:00,
2013-01-04 13:26:00,30.2,20.5,29.74,WSW,248,1.3,3.8,67,0.00,,,0.00,WUHU216HW,2013-01-04 18:26:00,
2013-01-04 13:31:00,30.2,20.5,29.73,West,270,3.6,3.8,67,0.00,,,0.00,WUHU216HW,2013-01-04 18:31:00,
2013-01-04 13:36:00,30.6,20.9,29.73,WSW,248,2.6,4.5,67,0.00,,,0.00,WUHU216HW,2013-01-04 18:36:00,
2013-01-04 13:41:00,30.4,20.7,29.73,SSW,203,3.6,4.5,67,0.00,,,0.00,WUHU216HW,2013-01-04 18:41:00,
2013-01-04 13:46:00,30.2,20.5,29.74,SW,219,2.3,3.8,67,0.00,,,0.00,WUHU216HW,2013-01-04 18:46:00,
2013-01-04 13:51:00,30.4,20.7,29.73,SW,225,4.0,4.0,67,0.00,,,0.00,WUHU216HW,2013-01-04 18:51:00,
2013-01-04 13:56:00,30.6,20.9,29.73,WSW,248,1.6,5.4,67,0.00,,,0.00,WUHU216HW,2013-01-04 18:56:00,
2013-01-04 14:01:00,30.6,21.2,29.74,West,270,2.9,5.4,68,0.00,,,0.00,WUHU216HW,2013-01-04 19:01:00,
2013-01-04 14:06:00,31.0,21.2,29.73,West,270,1.1,2.9,67,0.00,,,0.00,WUHU216HW,2013-01-04 19:06:00,
2013-01-04 14:11:00,31.0,21.2,29.74,WSW,248,1.5,6.3,67,0.00,,,0.00,WUHU216HW,2013-01-04 19:11:00,
2013-01-04 14:16:00,31.0,21.2,29.74,West,270,0.7,6.3,67,0.00,,,0.00,WUHU216HW,2013-01-04 19:16:00,
2013-01-04 14:21:00,30.8,21.1,29.74,WSW,248,1.8,3.8,67,0.00,,,0.00,WUHU216HW,2013-01-04 19:21:00,
2013-01-04 14:26:00,30.6,21.2,29.74,West,270,3.6,3.8,68,0.00,,,0.00,WUHU216HW,2013-01-04 19:26:00,
2013-01-04 14:31:00,30.6,21.2,29.74,WNW,302,2.5,4.3,68,0.00,,,0.00,WUHU216HW,2013-01-04 19:31:00,
2013-01-04 14:36:00,30.6,21.6,29.74,West,263,2.3,4.3,69,0.00,,,0.00,WUHU216HW,2013-01-04 19:36:00,
2013-01-04 14:41:00,30.8,21.8,29.74,WSW,248,0.7,2.9,69,0.00,,,0.00,WUHU216HW,2013-01-04 19:41:00,
2013-01-04 14:46:00,30.6,21.6,29.74,West,267,2.0,2.9,69,0.00,,,0.00,WUHU216HW,2013-01-04 19:46:00,
2013-01-04 14:51:00,30.6,21.6,29.74,WNW,293,1.1,2.5,69,0.00,,,0.00,WUHU216HW,2013-01-04 19:51:00,
2013-01-04 14:56:00,30.6,21.6,29.74,WSW,248,0.4,2.2,69,0.00,,,0.00,WUHU216HW,2013-01-04 19:56:00,
2013-01-04 15:01:00,30.6,21.6,29.74,SW,225,2.5,2.7,69,0.00,,,0.00,WUHU216HW,2013-01-04 20:01:00,
2013-01-04 15:06:00,30.4,21.8,29.74,NW,315,2.2,2.7,70,0.00,,,0.00,WUHU216HW,2013-01-04 20:06:00,
2013-01-04 15:11:00,30.4,21.8,29.74,WSW,248,3.6,3.6,70,0.00,,,0.00,WUHU216HW,2013-01-04 20:11:00,
2013-01-04 15:16:00,30.4,21.8,29.74,SW,225,2.2,3.6,70,0.00,,,0.00,WUHU216HW,2013-01-04 20:16:00,
2013-01-04 15:21:00,30.4,21.8,29.74,SSW,203,2.7,2.7,70,0.00,,,0.00,WUHU216HW,2013-01-04 20:21:00,
2013-01-04 15:26:00,30.4,21.8,29.74,WSW,248,1.1,2.7,70,0.00,,,0.00,WUHU216HW,2013-01-04 20:26:00,
2013-01-04 15:31:00,30.6,22.0,29.74,SW,225,2.3,4.0,70,0.00,,,0.00,WUHU216HW,2013-01-04 20:31:00,
2013-01-04 15:36:00,30.6,22.0,29.74,WSW,256,2.5,4.0,70,0.00,,,0.00,WUHU216HW,2013-01-04 20:36:00,
2013-01-04 15:41:00,30.6,22.0,29.74,SW,225,2.0,3.6,70,0.00,,,0.00,WUHU216HW,2013-01-04 20:41:00,
2013-01-04 15:46:00,30.6,22.0,29.74,NW,315,1.3,3.6,70,0.00,,,0.00,WUHU216HW,2013-01-04 20:46:00,
2013-01-04 15:51:00,30.6,22.0,29.74,WSW,253,0.8,1.3,70,0.00,,,0.00,WUHU216HW,2013-01-04 20:51:00,
2013-01-04 15:56:00,30.6,22.0,29.74,SW,225,2.2,2.2,70,0.00,,,0.00,WUHU216HW,2013-01-04 20:56:00,
2013-01-04 16:01:00,30.8,22.1,29.74,West,270,1.0,2.2,70,0.00,,,0.00,WUHU216HW,2013-01-04 21:01:00,
2013-01-04 16:06:00,30.6,22.0,29.74,West,277,2.6,3.8,70,0.00,,,0.00,WUHU216HW,2013-01-04 21:06:00,
2013-01-04 16:11:00,30.6,22.0,29.74,NW,315,1.6,3.8,70,0.00,,,0.00,WUHU216HW,2013-01-04 21:11:00,
2013-01-04 16:16:00,30.4,21.8,29.74,SW,225,2.5,3.4,70,0.00,,,0.00,WUHU216HW,2013-01-04 21:16:00,
2013-01-04 16:21:00,30.2,21.6,29.74,WSW,241,1.8,4.0,70,0.00,,,0.00,WUHU216HW,2013-01-04 21:21:00,
2013-01-04 16:26:00,30.2,22.0,29.74,West,270,3.4,4.0,71,0.00,,,0.00,WUHU216HW,2013-01-04 21:26:00,
2013-01-04 16:31:00,30.2,22.0,29.74,West,270,4.3,4.3,71,0.00,,,0.00,WUHU216HW,2013-01-04 21:31:00,
2013-01-04 16:36:00,30.1,22.1,29.74,SSW,198,2.5,4.3,72,0.00,,,0.00,WUHU216HW,2013-01-04 21:36:00,
2013-01-04 16:41:00,29.9,22.2,29.73,NNW,338,2.5,4.0,73,0.00,,,0.00,WUHU216HW,2013-01-04 21:41:00,
2013-01-04 16:46:00,29.9,22.2,29.73,NW,324,1.7,4.0,73,0.00,,,0.00,WUHU216HW,2013-01-04 21:46:00,
2013-01-04 16:51:00,29.9,22.2,29.73,WNW,298,3.3,4.7,73,0.00,,,0.00,WUHU216HW,2013-01-04 21:51:00,
2013-01-04 16:56:00,29.9,22.2,29.73,WNW,293,1.6,4.7,73,0.00,,,0.00,WUHU216HW,2013-01-04 21:56:00,
2013-01-04 17:01:00,29.9,22.2,29.73,SW,228,1.8,3.6,73,0.00,,,0.00,WUHU216HW,2013-01-04 22:01:00,
2013-01-04 17:06:00,29.9,22.6,29.74,SW,225,1.2,2.5,74,0.00,,,0.00,WUHU216HW,2013-01-04 22:06:00,
2013-01-04 17:11:00,29.9,22.6,29.74,SW,225,2.0,3.8,74,0.00,,,0.00,WUHU216HW,2013-01-04 22:11:00,
2013-01-04 17:16:00,30.1,22.8,29.74,West,273,1.8,3.8,74,0.00,,,0.00,WUHU216HW,2013-01-04 22:16:00,
2013-01-04 17:21:00,29.9,22.6,29.74,SSW,203,1.8,3.4,74,0.00,,,0.00,WUHU216HW,2013-01-04 22:21:00,
2013-01-04 17:26:00,29.9,22.6,29.74,WSW,248,2.7,4.0,74,0.00,,,0.00,WUHU216HW,2013-01-04 22:26:00,
2013-01-04 17:31:00,29.7,22.7,29.74,SSW,203,2.5,4.3,75,0.00,,,0.00,WUHU216HW,2013-01-04 22:31:00,
2013-01-04 17:36:00,29.7,22.4,29.74,South,190,4.4,7.6,74,0.00,,,0.00,WUHU216HW,2013-01-04 22:36:00,
2013-01-04 17:41:00,29.7,22.7,29.74,WSW,240,2.0,7.6,75,0.00,,,0.00,WUHU216HW,2013-01-04 22:41:00,
2013-01-04 17:46:00,29.7,22.7,29.75,SW,225,1.1,3.4,75,0.00,,,0.00,WUHU216HW,2013-01-04 22:46:00,
2013-01-04 17:51:00,29.7,22.7,29.74,WSW,240,1.9,3.4,75,0.00,,,0.00,WUHU216HW,2013-01-04 22:51:00,
2013-01-04 17:56:00,29.7,22.7,29.74,WSW,239,2.8,3.4,75,0.00,,,0.00,WUHU216HW,2013-01-04 22:56:00,
2013-01-04 18:01:00,29.7,22.7,29.74,West,277,1.8,3.4,75,0.00,,,0.00,WUHU216HW,2013-01-04 23:01:00,
2013-01-04 18:06:00,29.7,22.7,29.74,WSW,242,2.3,3.4,75,0.00,,,0.00,WUHU216HW,2013-01-04 23:06:00,
2013-01-04 18:11:00,29.7,22.7,29.74,SW,225,2.5,4.0,75,0.00,,,0.00,WUHU216HW,2013-01-04 23:11:00,
2013-01-04 18:16:00,29.7,22.7,29.74,SSW,203,2.2,4.0,75,0.00,,,0.00,WUHU216HW,2013-01-04 23:16:00,
2013-01-04 18:21:00,29.5,22.5,29.74,ENE,68,0.7,3.4,75,0.00,,,0.00,WUHU216HW,2013-01-04 23:21:00,
2013-01-04 18:26:00,29.7,22.7,29.74,SW,225,2.2,2.2,75,0.00,,,0.00,WUHU216HW,2013-01-04 23:26:00,
2013-01-04 18:31:00,29.9,22.6,29.75,WSW,241,1.9,2.5,74,0.00,,,0.00,WUHU216HW,2013-01-04 23:31:00,
2013-01-04 18:36:00,29.9,22.6,29.75,SW,215,1.2,2.5,74,0.00,,,0.00,WUHU216HW,2013-01-04 23:36:00,
2013-01-04 18:41:00,29.9,22.2,29.75,WSW,248,1.8,2.5,73,0.00,,,0.00,WUHU216HW,2013-01-04 23:41:00,
2013-01-04 18:46:00,29.9,22.2,29.75,SW,225,1.3,2.2,73,0.00,,,0.00,WUHU216HW,2013-01-04 23:46:00,
2013-01-04 18:51:00,29.9,22.2,29.75,WNW,293,2.9,4.0,73,0.00,,,0.00,WUHU216HW,2013-01-04 23:51:00,
2013-01-04 18:56:00,29.9,22.2,29.75,WSW,243,1.8,4.0,73,0.00,,,0.00,WUHU216HW,2013-01-04 23:56:00,
2013-01-04 19:01:00,29.9,22.6,29.75,West,276,1.9,3.4,74,0.00,,,0.00,WUHU216HW,2013-01-05 00:01:00,
2013-01-04 19:06:00,29.9,22.2,29.75,SW,225,3.1,6.7,73,0.00,,,0.00,WUHU216HW,2013-01-05 00:06:00,
2013-01-04 19:11:00,29.9,22.2,29.75,WNW,293,1.6,6.7,73,0.00,,,0.00,WUHU216HW,2013-01-05 00:11:00,
2013-01-04 19:16:00,29.9,22.2,29.75,WSW,245,1.6,3.1,73,0.00,,,0.00,WUHU216HW,2013-01-05 00:16:00,
2013-01-04 19:21:00,29.9,22.2,29.75,WSW,243,2.8,4.3,73,0.00,,,0.00,WUHU216HW,2013-01-05 00:21:00,
2013-01-04 19:26:00,29.9,22.2,29.75,SW,225,2.0,4.3,73,0.00,,,0.00,WUHU216HW,2013-01-05 00:26:00,
2013-01-04 19:31:00,29.9,22.2,29.75,West,261,1.2,4.0,73,0.00,,,0.00,WUHU216HW,2013-01-05 00:31:00,
2013-01-04 19:36:00,29.9,22.2,29.75,SW,229,2.2,4.0,73,0.00,,,0.00,WUHU216HW,2013-01-05 00:36:00,
2013-01-04 19:41:00,29.9,22.2,29.75,WSW,248,1.3,3.4,73,0.00,,,0.00,WUHU216HW,2013-01-05 00:41:00,
2013-01-04 19:46:00,30.1,22.4,29.75,WSW,248,0.8,4.0,73,0.00,,,0.00,WUHU216HW,2013-01-05 00:46:00,
2013-01-04 19:51:00,30.1,22.4,29.75,West,270,1.8,4.0,73,0.00,,,0.00,WUHU216HW,2013-01-05 00:51:00,
2013-01-04 19:56:00,30.1,22.1,29.75,SSE,158,0.9,2.7,72,0.00,,,0.00,WUHU216HW,2013-01-05 00:56:00,
2013-01-04 20:01:00,29.9,22.2,29.74,NNE,30,1.5,3.4,73,0.00,,,0.00,WUHU216HW,2013-01-05 01:01:00,
2013-01-04 20:06:00,29.9,22.2,29.75,SW,225,0.9,3.6,73,0.00,,,0.00,WUHU216HW,2013-01-05 01:06:00,
2013-01-04 20:11:00,29.9,22.2,29.75,West,270,2.0,3.8,73,0.00,,,0.00,WUHU216HW,2013-01-05 01:11:00,
2013-01-04 20:17:00,29.9,22.2,29.75,SW,224,1.1,3.8,73,0.00,,,0.00,WUHU216HW,2013-01-05 01:17:00,
2013-01-04 20:21:00,30.1,22.1,29.75,NNW,331,2.8,6.3,72,0.00,,,0.00,WUHU216HW,2013-01-05 01:21:00,
2013-01-04 20:26:00,30.2,22.2,29.75,SW,225,3.4,6.3,72,0.00,,,0.00,WUHU216HW,2013-01-05 01:26:00,
2013-01-04 20:31:00,30.2,22.2,29.75,WSW,257,2.9,5.1,72,0.00,,,0.00,WUHU216HW,2013-01-05 01:31:00,
2013-01-04 20:36:00,30.1,22.1,29.75,SSW,203,3.1,4.9,72,0.00,,,0.00,WUHU216HW,2013-01-05 01:36:00,
2013-01-04 20:41:00,30.1,22.1,29.75,SSW,203,2.5,4.7,72,0.00,,,0.00,WUHU216HW,2013-01-05 01:41:00,
2013-01-04 20:46:00,30.1,22.4,29.75,SW,225,6.7,6.7,73,0.00,,,0.00,WUHU216HW,2013-01-05 01:46:00,
2013-01-04 20:51:00,30.1,22.4,29.75,WNW,293,5.4,6.7,73,0.00,,,0.00,WUHU216HW,2013-01-05 01:51:00,
2013-01-04 20:56:00,30.1,22.4,29.75,SSW,203,5.6,6.7,73,0.00,,,0.00,WUHU216HW,2013-01-05 01:56:00,
2013-01-04 21:01:00,30.1,22.8,29.76,NW,315,3.6,5.6,74,0.00,,,0.00,WUHU216HW,2013-01-05 02:01:00,
2013-01-04 21:06:00,30.1,22.8,29.76,North,0,2.9,7.6,74,0.00,,,0.00,WUHU216HW,2013-01-05 02:06:00,
2013-01-04 21:11:00,29.9,22.6,29.76,WNW,291,1.0,7.6,74,0.00,,,0.00,WUHU216HW,2013-01-05 02:11:00,
2013-01-04 21:16:00,29.7,22.7,29.76,WSW,256,1.3,2.9,75,0.00,,,0.00,WUHU216HW,2013-01-05 02:16:00,
2013-01-04 21:21:00,29.5,22.5,29.76,West,268,0.8,2.9,75,0.00,,,0.00,WUHU216HW,2013-01-05 02:21:00,
2013-01-04 21:26:00,29.3,22.4,29.76,West,263,1.3,2.7,75,0.00,,,0.00,WUHU216HW,2013-01-05 02:26:00,
2013-01-04 21:31:00,29.3,22.7,29.76,WSW,246,3.0,4.7,76,0.00,,,0.00,WUHU216HW,2013-01-05 02:31:00,
2013-01-04 21:36:00,29.2,22.9,29.76,SSW,203,4.0,4.7,77,0.00,,,0.00,WUHU216HW,2013-01-05 02:36:00,
2013-01-04 21:41:00,29.2,23.1,29.76,WSW,239,1.5,4.0,78,0.00,,,0.00,WUHU216HW,2013-01-05 02:41:00,
2013-01-04 21:46:00,28.8,23.1,29.76,SW,230,1.9,4.0,79,0.00,,,0.00,WUHU216HW,2013-01-05 02:46:00,
2013-01-04 21:51:00,28.6,23.2,29.76,WSW,248,4.3,4.9,80,0.00,,,0.00,WUHU216HW,2013-01-05 02:51:00,
2013-01-04 21:56:00,28.6,23.5,29.76,SW,225,2.5,4.9,81,0.00,,,0.00,WUHU216HW,2013-01-05 02:56:00,
2013-01-04 22:01:00,28.4,23.3,29.76,SW,225,2.5,3.4,81,0.00,,,0.00,WUHU216HW,2013-01-05 03:01:00,
2013-01-04 22:06:00,28.4,23.3,29.76,SW,225,2.9,3.4,81,0.00,,,0.00,WUHU216HW,2013-01-05 03:06:00,
2013-01-04 22:11:00,28.6,23.5,29.76,WSW,244,2.2,4.0,81,0.00,,,0.00,WUHU216HW,2013-01-05 03:11:00,
2013-01-04 22:16:00,28.6,23.5,29.76,SW,233,2.1,4.0,81,0.00,,,0.00,WUHU216HW,2013-01-05 03:16:00,
2013-01-04 22:21:00,28.6,23.5,29.76,WSW,248,3.4,3.4,81,0.00,,,0.00,WUHU216HW,2013-01-05 03:21:00,
2013-01-04 22:27:00,28.6,23.2,29.76,SW,229,1.9,3.8,80,0.00,,,0.00,WUHU216HW,2013-01-05 03:27:00,
2013-01-04 22:32:00,28.4,23.3,29.76,SSW,203,2.2,3.8,81,0.00,,,0.00,WUHU216HW,2013-01-05 03:32:00,
2013-01-04 22:37:00,28.4,23.3,29.76,SW,232,2.0,4.0,81,0.00,,,0.00,WUHU216HW,2013-01-05 03:37:00,
2013-01-04 22:42:00,28.4,23.3,29.76,SW,229,1.4,4.0,81,0.00,,,0.00,WUHU216HW,2013-01-05 03:42:00,
2013-01-04 22:47:00,28.4,23.0,29.76,SW,225,0.4,3.4,80,0.00,,,0.00,WUHU216HW,2013-01-05 03:47:00,
2013-01-04 22:52:00,28.4,23.3,29.76,WSW,247,1.5,3.1,81,0.00,,,0.00,WUHU216HW,2013-01-05 03:52:00,
2013-01-04 22:57:00,28.4,23.3,29.77,WSW,248,1.1,2.7,81,0.00,,,0.00,WUHU216HW,2013-01-05 03:57:00,
2013-01-04 23:02:00,28.4,23.0,29.76,West,270,0.7,2.7,80,0.00,,,0.00,WUHU216HW,2013-01-05 04:02:00,
2013-01-04 23:07:00,28.4,23.6,29.76,SW,223,1.5,3.1,82,0.00,,,0.00,WUHU216HW,2013-01-05 04:07:00,
2013-01-04 23:12:00,28.3,23.4,29.76,WSW,253,1.5,3.4,82,0.00,,,0.00,WUHU216HW,2013-01-05 04:12:00,
2013-01-04 23:17:00,28.3,23.4,29.76,SW,225,1.3,3.4,82,0.00,,,0.00,WUHU216HW,2013-01-05 04:17:00,
2013-01-04 23:22:00,28.3,23.4,29.76,SSW,203,1.1,2.5,82,0.00,,,0.00,WUHU216HW,2013-01-05 04:22:00,
2013-01-04 23:27:00,28.4,23.3,29.77,NW,315,1.8,2.5,81,0.00,,,0.00,WUHU216HW,2013-01-05 04:27:00,
2013-01-04 23:32:00,28.8,23.4,29.77,SW,232,1.1,3.1,80,0.00,,,0.00,WUHU216HW,2013-01-05 04:32:00,
2013-01-04 23:37:00,28.8,23.7,29.77,SW,223,2.6,4.7,81,0.00,,,0.00,WUHU216HW,2013-01-05 04:37:00,
2013-01-04 23:42:00,28.8,23.7,29.77,NW,315,1.6,4.7,81,0.00,,,0.00,WUHU216HW,2013-01-05 04:42:00,
2013-01-04 23:47:00,28.6,23.8,29.77,SW,225,1.6,4.3,82,0.00,,,0.00,WUHU216HW,2013-01-05 04:47:00,
2013-01-04 23:52:00,28.4,23.6,29.77,SW,234,2.1,4.0,82,0.00,,,0.00,WUHU216HW,2013-01-05 04:52:00,
2013-01-04 23:57:00,28.4,24.0,29.77,WSW,241,1.6,4.0,83,0.00,,,0.00,WUHU216HW,2013-01-05 04:57:00,